Simultaneous Nadir Overpasses (SNOs) Predictions

Prediction of SNOs between GOES-16 and AQUA Satellite Orbit:

Table of predicted SNOs for the next 14.0 days since TLE Epoch: 3/30/2024
Index Date Time (GOES-16) GOES-16 Lat,Lon AQUA Lat,Lon Distance(km) Time Diff (sec)
1 03/31/2024 07:02:37 -0.03, -75.22 -0.12, -74.74 54.40 80
2 04/02/2024 06:46:41 -0.02, -75.22 -0.97, -70.84 498.20 80
3 04/02/2024 19:07:07 0.02, -75.23 -0.08, -75.79 63.64 80
4 04/04/2024 18:53:49 0.01, -75.24 0.74, -71.89 381.65 80
5 04/05/2024 07:14:06 -0.01, -75.24 0.31, -76.80 176.08 80
6 04/07/2024 06:55:27 -0.01, -75.26 -0.52, -72.89 270.51 80
7 04/07/2024 19:15:52 0.01, -75.27 -0.53, -77.83 290.77 80
8 04/09/2024 19:02:32 0.01, -75.30 0.33, -73.92 157.22 80
9 04/10/2024 07:22:48 -0.01, -75.31 0.74, -78.82 399.65 80
10 04/12/2024 07:04:06 -0.01, -75.34 -0.08, -74.90 49.29 80
